{"data":{"norad_id":66965,"intl_designator":"2025-288G","name":"STARLINK-36067","alt_names":[],"object_type":"PAYLOAD","status":"ACTIVE","operator":null,"country":"US","launch_date":"2025-12-08","launch_site_code":"AFETR","launch_vehicle":null,"mission":null,"orbit_class":"UNKNOWN","rcs_meters":null,"size_class":null,"mass_kg":null,"dimensions":null,"purposes":["comms"],"wikipedia_slug":null,"has_3d_model":false,"image_url":null,"decayed_at":null,"tle_current":{"epoch":"2026-05-25T03:35:41.974368Z","epoch_age_seconds":68911,"freshness":"FRESH","line1":"1 66965U 25288G   26145.14979137  .00020402  00000+0  74829-3 0  9996","line2":"2 66965  43.0006 311.4220 0001414 280.6590  79.4102 15.27605145 26984","mean_motion":15.27605145,"eccentricity":0.0001414,"inclination_deg":43.0006,"raan_deg":311.422,"arg_perigee_deg":280.659,"mean_anomaly_deg":79.4102,"bstar":0.00074829,"rev_number":2698,"period_min":94.265197044751,"perigee_km":482.00364282891,"apogee_km":483.94396496426,"semimajor_km":6861.1108038966,"source":"CELESTRAK","updated_at":"2026-05-25T13:38:21.393986Z"}}}